User: anonymous   Login
Location: Eimen
(51.8766°N, 9.7806°E)
Time: 06:08:10
(UTC+00:00)
Language:

Cosmos 2221 Rocket - Orbit

View from above orbital plane
View from above orbital plane
View from above satellite
View from above satellite

Ground track
Ground track

The orbit data is extracted from the following two-line orbital elements,

1 22237U 92080B   24201.79344466  .00000741  00000-0  96132-4 0  9994
2 22237  82.5098 227.9030 0019725  19.1556 341.0393 14.79391968706007
Epoch (UTC): 19 July 2024 19:02:33
Eccentricity: 0.0019725
inclination: 82.5098°
perigee height: 617 km
apogee height: 645 km
right ascension of ascending node: 227.9030°
argument of perigee: 19.1556°
revolutions per day: 14.79391968
mean anomaly at epoch: 341.0393°
orbit number at epoch: 70600

The dashed part of the orbit path shows where the satellite is in the earth's shadow,  

DLR